[[{"header":{"parameterUnit":"m.s-1","parameterCategory":1,"la1":30.2991,"la2":30.254,"lo1":-89.0895,"lo2":-89.0444,"dy":0.0017,"dx":0.0017,"nx":28,"ny":28,"refTime":"2025-12-15T09:00:00:Z","depth":0,"parameterNumber":2,"parameterNumberName":"U-component_of_WINDS"},"data":[0,0,0,0,0,0,0,0,0,0,0,0,0,0,0,0,0,0,0,0,0,0,0,0,0,0,0,0,0,0,0,0,0,0,0,0,0,0,0,0,0,0,0,0,0,0,0,0,0,0,0,0,0,0,0,0,0,0,-1.9906,-1.9907,0,-1.9983,-1.9984,-1.9985,-1.9943,-1.9941,-1.9939,-1.9937,-2.0017,-2.0021,-2.0025,0,0,0,0,0,0,0,0,0,0,0,0,0,-1.9722,-1.9726,-1.9906,-1.9907,-1.9908,-1.9983,-1.9984,-1.9985,-1.9943,-1.9941,-1.9938,-1.9936,-2.0016,-2.002,-2.0025,0,0,0,0,0,0,0,0,0,0,0,0,0,-1.9801,-1.9727,-1.9906,-1.9896,-1.9896,-1.9983,-1.9984,-1.9986,-1.9944,-1.9941,-1.9937,-1.9935,-2.0014,-2.002,-2.0026,-2.0127,0,0,-2.0045,-2.0047,0,0,0,0,0,0,0,0,-1.9797,-1.9808,-1.9897,-1.9897,-1.9897,-1.995,-1.9949,-2.0033,-1.9945,-1.9926,-1.9937,-1.9933,-1.9997,-2.0005,-2.0026,-2.0131,-2.0135,-2.0045,-2.0049,-2.0052,-2.0053,0,0,0,0,0,0,0,-1.9791,-1.9804,-1.9937,-1.9898,-1.9898,-1.9888,-1.9895,-1.9965,-1.9978,-1.9927,-1.9924,-1.9934,-1.9997,-2.002,-2.0028,-2.0136,-2.0045,-2.0051,-2.0054,-2.0057,-2.0326,-2.0329,0,0,0,0,0,0,-1.9786,-1.98,-1.9934,-1.9939,-1.9838,-1.9894,-1.9902,-1.9936,-1.9978,-1.9981,-1.9936,-1.9932,-2.0011,-2.0021,-2.003,-2.0151,-2.0052,-2.0057,-2.0061,-2.0323,-2.0327,-2.0331,0,0,0,0,0,0,-1.9783,-1.9799,-1.9931,-1.9869,-1.9885,-1.99,-1.9939,-1.994,-1.9963,-1.9985,-1.9987,-1.9958,-2.0009,-2.0022,-2.0103,-2.0153,-2.006,-2.0066,-2.0319,-2.0324,-2.0329,-2.0393,0,0,0,0,0,0,-1.9778,-1.9798,-1.9836,-1.987,-1.9888,-2.0003,-1.9942,-1.9943,-1.9973,-1.9968,-2.0005,-2.0008,-2.0008,-2.0094,-2.0109,-2.016,-2.0071,-2.0314,-2.0321,-2.0327,-2.0386,-2.04,-2.0411,0,0,0,0,0,-1.9771,-1.9852,-1.9839,-1.9855,-1.9937,-2.0006,-2.0016,-2.0013,-1.9978,-2.0017,-2.003,-2.0007,-2.0145,-2.0103,-2.0119,-2.0173,-2.0311,-2.0319,-2.0327,-2.0381,-2.0397,-2.0411,0,0,0,0,0,0,-1.9825,-1.9856,-1.9842,-1.9936,-1.9968,-1.9998,-2.0048,-2.0031,-2.0074,-2.0067,-2.0062,-2.0071,-2.0155,-2.0172,-2.0125,-2.0272,-2.0222,-2.0234,-2.0258,-2.0274,-2.0286,-2.028,-2.0076,0,0,0,0,0,-1.9847,-1.99,-1.9925,-2.0006,-2.0023,-2.0033,-2.0062,-2.0057,-2.0091,-2.0104,-2.0124,-2.0158,-2.0208,-2.0242,-2.029,-2.0388,-2.0395,-2.0433,-2.0445,-2.0455,-2.0465,-2.0517,-2.0534,-2.0356,-2.0356,-2.0356,0,0,-1.9895,-1.9919,-1.9953,-2.0017,-2.0042,-2.0096,-2.0044,-2.0105,-2.0145,-2.0114,-2.0191,-2.0207,-2.0244,-2.0334,-2.0375,-2.0351,-2.0516,-2.0465,-2.0473,-2.0478,-2.0527,-2.0544,-2.0559,-2.0361,-2.0361,-2.036,0,0,-2.001,-2.0033,-2.0102,-2.0128,-2.0165,-2.0171,-2.0187,-2.022,-2.0229,-2.0306,-2.0283,-2.0331,-2.0419,-2.0446,-2.0471,-2.0595,-2.0575,-2.061,-2.0675,-2.0725,-2.0739,-2.0752,-2.0795,-2.0811,-2.062,-2.062,-2.0621,0,-2.0064,-2.0146,-2.014,-2.0202,-2.0231,-2.0204,-2.0273,-2.0298,-2.035,-2.037,-2.0342,-2.045,-2.0474,-2.0569,-2.0599,-2.0621,-2.0639,-2.0606,-2.0738,-2.075,-2.0762,-2.0803,-2.0819,-2.0624,-2.0624,-2.0624,-2.0623,0,-2.021,-2.0267,-2.0319,-2.0368,-2.0402,-2.0468,-2.0472,-2.0507,-2.0499,-2.0508,-2.0586,-2.0613,-2.0665,-2.0688,-2.068,-2.0782,-2.0765,-2.0738,-2.0688,-2.0783,-2.0821,-2.0837,-2.063,-2.0629,-2.0628,-2.0627,0,0,-2.0362,-2.0406,-2.0425,-2.0446,-2.0485,-2.0529,-2.0593,-2.0643,-2.0673,-2.0709,-2.0762,-2.0836,-2.0811,-2.0839,-2.0835,-2.088,-2.0974,-2.0846,-2.0847,-2.0868,-2.1086,-2.1106,-2.1125,-2.0961,-2.0964,-2.0966,-2.1083,0,-2.0478,-2.059,-2.0586,-2.0689,-2.0741,-2.0715,-2.0771,-2.0801,-2.081,-2.0855,-2.0866,-2.0918,-2.088,-2.0897,-2.094,-2.0953,-2.1018,-2.0945,-2.101,-2.1012,-2.1001,-2.1145,-2.1167,-2.1275,-2.1098,-2.11,-2.1102,0,-2.0629,-2.0669,-2.0778,-2.0807,-2.0829,-2.0879,-2.0924,-2.0968,-2.1,-2.1004,-2.1035,-2.1023,-2.1087,-2.1036,-2.1124,-2.1074,-2.1101,-2.1111,-2.1115,-2.1121,-2.1063,-2.1154,-2.131,-2.1326,-2.1126,-2.1124,-2.1122,0,-2.0728,-2.0809,-2.0884,-2.0903,-2.094,-2.0975,-2.0992,-2.1022,-2.1052,-2.1091,-2.111,-2.1157,-2.1183,-2.1219,-2.122,-2.1182,-2.1309,-2.1257,-2.1313,-2.1313,-2.1341,-2.1339,-2.1503,-2.1359,-2.1359,-2.1358,-2.1358,0,-2.0858,-2.0925,-2.0928,-2.0975,-2.1049,-2.1043,-2.1117,-2.1131,-2.1157,-2.1205,-2.1186,-2.1231,-2.123,-2.1276,-2.1277,-2.1349,-2.1361,-2.1365,-2.1365,-2.1367,-2.1366,-2.1384,-2.1376,-2.1363,-2.1362,-2.1361,-2.136,0,-2.0981,-2.0985,-2.1065,-2.1093,-2.1101,-2.1155,-2.1178,-2.1222,-2.1229,-2.129,-2.1304,-2.1315,-2.1369,-2.1373,-2.1435,-2.1435,-2.1523,-2.1514,-2.1511,-2.151,-2.1565,-2.156,-2.1746,-2.1769,-2.161,-2.1612,-2.1613,0,-2.1063,-2.1114,-2.1147,-2.1177,-2.1196,-2.1245,-2.1275,-2.1272,-2.1304,-2.1344,-2.1383,-2.1434,-2.1475,-2.1561,-2.1575,-2.1622,-2.1614,-2.1676,-2.1621,-2.1621,-2.1614,-2.1611,-2.1615,-2.1686,-2.1688,-2.169,-2.1691,0,-2.1209,-2.1208,-2.1252,-2.1297,-2.1333,-2.1368,-2.1401,-2.1427,-2.1428,-2.1465,-2.1518,-2.155,-2.1612,-2.1663,-2.1709,-2.1726,-2.1709,-2.1708,-2.1723,-2.1726,-2.1722,-2.1724,-2.154,-2.1704,-2.1702,-2.1701,-2.1701,-2.17,-2.1314,-2.1357,-2.1386,-2.1435,-2.1459,-2.149,-2.1532,-2.1544,-2.1588,-2.1638,-2.1634,-2.1693,-2.1723,-2.1782,-2.1803,-2.1849,-2.1828,-2.1851,-2.1856,-2.1862,-2.1867,-2.1714,-2.1858,-2.1857,-2.1857,-2.1857,-2.1857,0,-2.1458,-2.1475,-2.152,-2.1566,-2.1604,-2.1584,-2.1618,-2.1652,-2.1704,-2.1734,-2.1773,-2.1835,-2.1883,-2.1901,-2.1948,-2.1982,-2.1975,-2.1994,-2.1992,-2.1996,-2.1884,-2.1865,-2.1999,-2.1999,-2.1999,-2.1999,-2.1999,-2.1999,-2.1537,-2.1609,-2.1612,-2.1695,-2.1712,-2.1769,-2.1791,-2.1819,-2.1842,-2.191,-2.1951,-2.1961,-2.1986,-2.2034,-2.2078,-2.2082,-2.21,-2.2123,-2.2123,-2.2018,-2.2004,-2.199,-2.1973,-2.2127,-2.2127,-2.2231,-2.2232,-2.2233]},{"header":{"parameterUnit":"m.s-1","parameterCategory":1,"la1":30.2991,"la2":30.254,"lo1":-89.0895,"lo2":-89.0444,"dy":0.0017,"dx":0.0017,"nx":28,"ny":28,"refTime":"2025-12-15T09:00:00:Z","depth":0,"parameterNumber":3,"parameterNumberName":"V-component_of_WINDS"},"data":[0,0,0,0,0,0,0,0,0,0,0,0,0,0,0,0,0,0,0,0,0,0,0,0,0,0,0,0,0,0,0,0,0,0,0,0,0,0,0,0,0,0,0,0,0,0,0,0,0,0,0,0,0,0,0,0,0,0,-2.2259,-2.2259,0,-2.2322,-2.2323,-2.2324,-2.2325,-2.2324,-2.2323,-2.2323,-2.2387,-2.2389,-2.2391,0,0,0,0,0,0,0,0,0,0,0,0,0,-2.2135,-2.2137,-2.2259,-2.2259,-2.226,-2.2322,-2.2323,-2.2324,-2.2325,-2.2324,-2.2323,-2.2322,-2.2386,-2.2389,-2.2392,0,0,0,0,0,0,0,0,0,0,0,0,0,-2.2193,-2.2138,-2.2258,-2.2268,-2.227,-2.2322,-2.2323,-2.2324,-2.2325,-2.2324,-2.2323,-2.2322,-2.2385,-2.2388,-2.2392,-2.2439,0,0,-2.2403,-2.2405,0,0,0,0,0,0,0,0,-2.2189,-2.2197,-2.2266,-2.2268,-2.2269,-2.2315,-2.2303,-2.2363,-2.2326,-2.2304,-2.2323,-2.2321,-2.2364,-2.2369,-2.2383,-2.2442,-2.2444,-2.2404,-2.2406,-2.2407,-2.2408,0,0,0,0,0,0,0,-2.2185,-2.2194,-2.2284,-2.2267,-2.2269,-2.2268,-2.2275,-2.2314,-2.234,-2.2306,-2.2306,-2.2314,-2.2364,-2.238,-2.2385,-2.2445,-2.2404,-2.2407,-2.2409,-2.241,-2.2543,-2.2544,0,0,0,0,0,0,-2.218,-2.2191,-2.2282,-2.2286,-2.2226,-2.2272,-2.2279,-2.2301,-2.2339,-2.2344,-2.2315,-2.2314,-2.2374,-2.2381,-2.2387,-2.2443,-2.2407,-2.2411,-2.2413,-2.2541,-2.2543,-2.2544,0,0,0,0,0,0,-2.2177,-2.2188,-2.2279,-2.2238,-2.225,-2.2275,-2.23,-2.2303,-2.2319,-2.2346,-2.235,-2.2326,-2.2374,-2.2382,-2.2425,-2.2445,-2.2412,-2.2416,-2.254,-2.2542,-2.2544,-2.2555,0,0,0,0,0,0,-2.2173,-2.2187,-2.2205,-2.2239,-2.2252,-2.2317,-2.2301,-2.2305,-2.2325,-2.2324,-2.2358,-2.2362,-2.2373,-2.242,-2.2429,-2.245,-2.2419,-2.2538,-2.2541,-2.2543,-2.2553,-2.2557,-2.2561,0,0,0,0,0,-2.2169,-2.2206,-2.2206,-2.2217,-2.2276,-2.2318,-2.2326,-2.2338,-2.2327,-2.2345,-2.2362,-2.2361,-2.2442,-2.2424,-2.2435,-2.2457,-2.2537,-2.254,-2.2543,-2.2552,-2.2557,-2.2561,0,0,0,0,0,0,-2.2174,-2.2211,-2.2211,-2.2261,-2.2286,-2.2318,-2.2342,-2.2343,-2.2372,-2.237,-2.2384,-2.2391,-2.2434,-2.245,-2.243,-2.2503,-2.2488,-2.2493,-2.2491,-2.2496,-2.25,-2.2495,-2.2422,0,0,0,0,0,-2.2181,-2.2213,-2.2243,-2.2284,-2.2297,-2.2317,-2.2336,-2.2343,-2.237,-2.2381,-2.2401,-2.2427,-2.2458,-2.2478,-2.2508,-2.2556,-2.2562,-2.2576,-2.2579,-2.2582,-2.2587,-2.2611,-2.2617,-2.2554,-2.2554,-2.2554,0,0,-2.2196,-2.222,-2.2239,-2.2285,-2.2306,-2.2338,-2.2326,-2.2361,-2.2384,-2.2386,-2.2428,-2.2444,-2.2473,-2.2518,-2.2539,-2.2533,-2.2605,-2.2586,-2.2588,-2.2591,-2.2615,-2.2621,-2.2626,-2.2556,-2.2556,-2.2556,0,0,-2.2239,-2.2261,-2.2296,-2.2317,-2.2348,-2.2361,-2.237,-2.2402,-2.2412,-2.2454,-2.2456,-2.2483,-2.2537,-2.2557,-2.2575,-2.2623,-2.2623,-2.2633,-2.2653,-2.2677,-2.2681,-2.2686,-2.2702,-2.2708,-2.2637,-2.2637,-2.2637,0,-2.2253,-2.2301,-2.2314,-2.2348,-2.2368,-2.2371,-2.2406,-2.2425,-2.2465,-2.2478,-2.247,-2.2536,-2.2556,-2.2605,-2.2617,-2.2631,-2.264,-2.2629,-2.268,-2.2684,-2.2689,-2.2704,-2.271,-2.2638,-2.2638,-2.2638,-2.2637,0,-2.2316,-2.235,-2.2375,-2.2412,-2.2435,-2.2469,-2.2486,-2.2507,-2.2512,-2.2525,-2.2567,-2.2592,-2.2626,-2.2638,-2.2643,-2.2688,-2.2682,-2.2677,-2.2662,-2.2695,-2.271,-2.2716,-2.2639,-2.2639,-2.2638,-2.2638,0,0,-2.2365,-2.2408,-2.2417,-2.2434,-2.2468,-2.2494,-2.2527,-2.2561,-2.2578,-2.2605,-2.2632,-2.2677,-2.2672,-2.2691,-2.2699,-2.272,-2.2755,-2.2712,-2.2712,-2.2718,-2.2804,-2.2807,-2.2813,-2.2755,-2.2756,-2.2757,-2.2801,0,-2.241,-2.2471,-2.2483,-2.2535,-2.2565,-2.2568,-2.2597,-2.2621,-2.2634,-2.2661,-2.2675,-2.2706,-2.2698,-2.2709,-2.273,-2.2746,-2.2772,-2.2743,-2.278,-2.2781,-2.2771,-2.2821,-2.2825,-2.2865,-2.2807,-2.2808,-2.2808,0,-2.2472,-2.25,-2.2555,-2.2584,-2.2597,-2.2623,-2.2654,-2.268,-2.2706,-2.2714,-2.2735,-2.274,-2.2774,-2.2758,-2.2804,-2.2784,-2.2799,-2.2809,-2.2811,-2.2814,-2.2796,-2.2825,-2.2879,-2.2884,-2.2818,-2.2817,-2.2816,0,-2.25,-2.2552,-2.2591,-2.2605,-2.264,-2.2658,-2.2673,-2.2698,-2.2717,-2.2744,-2.2756,-2.2786,-2.2802,-2.2825,-2.2837,-2.2825,-2.2882,-2.2868,-2.2889,-2.2888,-2.29,-2.2899,-2.2956,-2.2912,-2.2912,-2.2912,-2.2912,0,-2.2549,-2.2583,-2.2604,-2.2628,-2.2665,-2.2677,-2.2713,-2.2728,-2.275,-2.2776,-2.2781,-2.2805,-2.282,-2.2846,-2.2856,-2.2892,-2.2899,-2.2906,-2.2908,-2.2905,-2.2904,-2.2915,-2.2912,-2.2913,-2.2913,-2.2913,-2.2912,0,-2.2587,-2.2603,-2.2646,-2.2675,-2.2683,-2.2708,-2.2733,-2.2756,-2.2768,-2.2801,-2.281,-2.283,-2.2861,-2.2875,-2.2914,-2.292,-2.296,-2.2961,-2.2952,-2.2952,-2.2972,-2.297,-2.3037,-2.3046,-2.2997,-2.2997,-2.2998,0,-2.2617,-2.2643,-2.2674,-2.2692,-2.2708,-2.2737,-2.2756,-2.2768,-2.2788,-2.2819,-2.2837,-2.2868,-2.2894,-2.2943,-2.296,-2.2989,-2.299,-2.3012,-2.2994,-2.299,-2.2989,-2.2987,-2.2989,-2.3014,-2.3015,-2.3015,-2.3016,0,-2.2668,-2.2674,-2.2702,-2.2732,-2.2754,-2.2778,-2.2802,-2.2816,-2.2832,-2.2854,-2.2885,-2.2905,-2.2943,-2.2974,-2.3004,-2.3018,-2.3019,-2.3021,-2.3027,-2.3024,-2.3017,-2.302,-2.2959,-2.3019,-2.3019,-2.3019,-2.3019,-2.3018,-2.2702,-2.2725,-2.275,-2.278,-2.2799,-2.282,-2.2843,-2.2858,-2.2885,-2.2917,-2.2923,-2.2956,-2.298,-2.302,-2.3035,-2.3061,-2.3056,-2.3065,-2.3067,-2.3069,-2.307,-2.3014,-2.3067,-2.3066,-2.3066,-2.3066,-2.3066,0,-2.2753,-2.2769,-2.2796,-2.2829,-2.2852,-2.2851,-2.2876,-2.2896,-2.2925,-2.2947,-2.2972,-2.3007,-2.3036,-2.3055,-2.3085,-2.3101,-2.3102,-2.3108,-2.3107,-2.311,-2.3073,-2.3064,-2.3107,-2.3107,-2.3107,-2.3107,-2.3107,-2.3107,-2.2781,-2.2819,-2.2827,-2.2873,-2.2889,-2.2922,-2.2936,-2.2955,-2.2973,-2.3012,-2.3036,-2.3049,-2.3069,-2.31,-2.3126,-2.3131,-2.3141,-2.3147,-2.3151,-2.3117,-2.3113,-2.3108,-2.31,-2.3149,-2.3149,-2.3186,-2.3186,-2.3186]}]]